Regional Weather Roundup
Issued by NWS Jackson, KY

Home | Current Version | Previous Version | Graphics & Text | Print | Product List | Glossary On
Versions: 1 2 3 4 5 6 7 8 9 10 11 12 13 14 15 16 17 18 19 20 21 22 23 24 25 26 27 28 29 30 31 32 33 34 35 36 37 38 39 40 41 42 43 44 45 46 47 48 49 50
688
ASUS43 KJKL 292010
RWRJKL

EAST KENTUCKY HOURLY WEATHER ROUNDUP
NATIONAL WEATHER SERVICE JACKSON KY
400 PM EDT FRI JUL 29 2016

NOTE: "FAIR" INDICATES FEW OR NO CLOUDS BELOW 12,000 FEET WITH
NO SIGNIFICANT WEATHER AND/OR OBSTRUCTIONS TO VISIBILITY.

* THESE REPORTS ARE NOT UNDER NWS QUALITY CONTROL AND MAY NOT
  REPORT WEATHER SUCH AS PRECIPITATION AND FOG.

KYZ079-080-083-085-087-088-110-112-115-119-120-292100
...EASTERN KENTUCKY...

CITY           SKY/WX    TMP DP  RH WIND       PRES   REMARKS
JACKSON        LGT RAIN  76  72  87 CALM      29.98S
LONDON         RAIN      72  68  87 W7        30.00R
SOMERSET*      LGT RAIN  70  70 100 S3        30.00F
MONTICELLO*    RAIN     N/A N/A N/A VRB5      30.01F
WILLIAMSBURG*  CLOUDY    70  70 100 SW3       30.01F
MIDDLESBORO*   TSTM      71  70  97 SW7G20    30.00R VSB 1/2
HARLAN APT*    MOCLDY    81  68  65 CALM      29.98F
PIKE CO APT*   CLOUDY    82  72  73 SW3       29.97F
BIG SANDY APT* PTCLDY    82  71  69 CALM      29.96F
MOREHEAD APT*  PTCLDY    84  70  61 VRB3      29.95F
ASHLAND*       PTSUNNY   84  73  70 W6        29.90S HX  91
$$

KYZ035-036-041-042-044-050-067-078-099-292100
...CENTRAL KENTUCKY...

CITY           SKY/WX    TMP DP  RH WIND       PRES   REMARKS
MT STERLING*   LGT RAIN  81  73  78 SW5       29.95F
FLEMING/MASON* PTSUNNY   83  72  67 SW7       29.93F
DANVILLE*      PTSUNNY   82  72  69 SW10      29.96F
LEXINGTON      LGT RAIN  82  74  76 SW10      29.93F
FRANKFORT      CLOUDY    83  74  74 S10       29.91F
LOUISVILLE     PTSUNNY   87  70  56 SW15      29.89F HX  92
LEBANON*       MOCLDY    82  73  74 S8        29.94F
GLASGOW*       MOSUNNY   82  71  71 SW6       29.95F
BOWLING GREEN  MOSUNNY   82  73  74 SE8       29.94F
$$

KYZ091>093-OHZ055-061-077-WVZ005-015-034-035-042-292100
...SOUTHERN OHIO/WEST VIRGINIA...

CITY           SKY/WX    TMP DP  RH WIND       PRES   REMARKS
COVINGTON      PTSUNNY   86  71  60 S8        29.90F HX  91
COLUMBUS       LGT RAIN  75  72  90 SW9       29.91F
DAYTON         PTSUNNY   84  68  58 E12       29.90F
WILMINGTON     MOSUNNY   83  72  69 VRB6      29.92F
HUNTINGTON       N/A     83  70  64 VRB3      29.92F
CHARLESTON     PTSUNNY   85  70  60 W5        29.94F
PINEVILLE*       N/A     83  65  54 MISG      30.04F
BECKLEY        PTSUNNY   77  65  66 N6        30.03F
BLUEFIELD      PTSUNNY   75  64  68 W7        30.06F
LOGAN CO APT*    N/A     82  70  65 CALM      29.97F
$$

VAZ002-007-008-TNZ017-027-036-066-071-292100
...SOUTHWEST VIRGINIA/EAST TENNESSEE...

CITY           SKY/WX    TMP DP  RH WIND       PRES   REMARKS
WISE*          PTSUNNY  N/A N/A N/A W7        30.06F
JONESVILLE*      N/A     84  70  61 SW5       29.99F
ABINGDON*      PTSUNNY   84  68  58 W3        30.02F
BRISTOL        PTSUNNY   85  68  56 W7        29.99F
MORRISTOWN*    PTCLDY    86  68  54 W9G15     29.96F
SEVIERVILLE*   PTCLDY    90  64  43 VRB6      29.95F HX  91
KNOXVILLE      PTSUNNY   89  68  49 W7G17     29.95F HX  93
OAK RIDGE      MOSUNNY   89  72  56 VRB6      29.97F HX  96
CROSSVILLE     PTSUNNY   82  69  64 W10       30.03F
NASHVILLE      PTSUNNY   88  71  57 W7G16     29.95F HX  94
$$

...KEY TO REMARKS...
VSB - VISIBILITY IN MILES
WCI - WIND CHILL INDEX
HX  - HEAT INDEX

$$




USA.gov is the U.S. government's official web portal to all federal, state and local government web resources and services.